| time (UTC) | temp F | wind direction | speed MPH | gust MPH | rain 1hr in | rain 24hr in | rain mn in | humidity % | barometer mb |
| 20260507103328 | 69 | 101 | 0.0 | 4.0 | 0.00 | 0.00 | 0.00 | 65 | 1015.9 |
| 20260507102334 | 69 | 198 | 1.0 | 3.0 | 0.00 | 0.00 | 0.00 | 64 | 1015.9 |
| 20260507101333 | 69 | 134 | 0.0 | 3.0 | 0.00 | 0.00 | 0.00 | 64 | 1015.8 |
| 20260507100341 | 69 | 122 | 0.0 | 3.0 | 0.00 | 0.00 | 0.00 | 65 | 1015.7 |
| 20260507095342 | 69 | 133 | 0.0 | 3.0 | 0.00 | 0.00 | 0.00 | 64 | 1015.8 |
| 20260507094336 | 69 | 109 | 1.0 | 2.0 | 0.00 | 0.00 | 0.00 | 64 | 1015.8 |
| 20260507093327 | 69 | 128 | 0.0 | 5.0 | 0.00 | 0.00 | 0.00 | 67 | 1015.7 |
| 20260507092336 | 69 | 146 | 0.0 | 3.0 | 0.00 | 0.00 | 0.00 | 66 | 1015.8 |
| 20260507091336 | 69 | 120 | 0.0 | 2.0 | 0.00 | 0.00 | 0.00 | 66 | 1015.6 |
| 20260507090326 | 69 | 304 | 0.0 | 3.0 | 0.00 | 0.00 | 0.00 | 66 | 1015.5 |
| 20260507085343 | 68 | 106 | 0.0 | 2.0 | 0.00 | 0.00 | 0.00 | 66 | 1015.3 |
| 20260507084333 | 68 | 107 | 0.0 | 3.0 | 0.00 | 0.00 | 0.00 | 61 | 1015.3 |
| 20260507083326 | 68 | 150 | 0.0 | 2.0 | 0.00 | 0.00 | 0.00 | 60 | 1015.1 |
| 20260507082339 | 69 | 112 | 0.0 | 1.0 | 0.00 | 0.00 | 0.00 | 60 | 1015.1 |
| 20260507081356 | 68 | 158 | 0.0 | 4.0 | 0.00 | 0.00 | 0.00 | 62 | 1015.1 |
| 20260507080342 | 69 | 287 | 0.0 | 1.0 | 0.00 | 0.00 | 0.00 | 63 | 1015.1 |
| 20260507075329 | 69 | 124 | 0.0 | 2.0 | 0.00 | 0.00 | 0.00 | 62 | 1015.2 |
| 20260507074347 | 68 | 92 | 1.0 | 4.0 | 0.00 | 0.00 | 0.00 | 64 | 1015.2 |
| 20260507073341 | 68 | 284 | 0.0 | 3.0 | 0.00 | 0.00 | 0.00 | 61 | 1015.4 |
| 20260507072342 | 68 | 114 | 0.0 | 2.0 | 0.00 | 0.00 | 0.00 | 60 | 1015.4 |
| 20260507071333 | 67 | 330 | 0.0 | 0.0 | 0.00 | 0.00 | 0.00 | 62 | 1015.4 |
| 20260507070351 | 64 | 129 | 0.0 | 0.0 | 0.00 | 0.00 | 0.00 | 63 | 1015.5 |
| 20260507065338 | 63 | 301 | 0.0 | 0.0 | 0.00 | 0.00 | 0.00 | 64 | 1015.4 |
| 20260507064334 | 63 | 332 | 0.0 | 3.0 | 0.00 | 0.00 | 0.00 | 56 | 1015.2 |
| 20260507063351 | 65 | 321 | 1.0 | 3.0 | 0.00 | 0.00 | 0.00 | 61 | 1015.3 |
| 20260507062327 | 64 | 295 | 0.0 | 2.0 | 0.00 | 0.00 | 0.00 | 60 | 1015.3 |
| 20260507061343 | 62 | 355 | 0.0 | 5.0 | 0.00 | 0.00 | 0.00 | 64 | 1015.2 |
| 20260507060332 | 61 | 13 | 1.0 | 5.0 | 0.00 | 0.00 | 0.00 | 63 | 1015.0 |
| 20260507055402 | 60 | 281 | 1.0 | 6.0 | 0.00 | 0.00 | 0.00 | 65 | 1015.0 |
| 20260507054339 | 60 | 323 | 2.0 | 8.0 | 0.00 | 0.00 | 0.00 | 65 | 1014.7 |
| 20260507053328 | 59 | 15 | 2.0 | 5.0 | 0.00 | 0.00 | 0.00 | 70 | 1014.6 |
| 20260507052343 | 59 | 311 | 0.0 | 4.0 | 0.00 | 0.00 | 0.00 | 69 | 1014.4 |
| 20260507051343 | 59 | 229 | 1.0 | 8.0 | 0.00 | 0.00 | 0.00 | 69 | 1014.3 |
| 20260507050332 | 58 | 278 | 1.0 | 5.0 | 0.00 | 0.00 | 0.00 | 74 | 1014.1 |
| 20260507045339 | 57 | 316 | 1.0 | 7.0 | 0.00 | 0.00 | 0.00 | 75 | 1013.9 |
| 20260507044357 | 57 | 110 | 1.0 | 4.0 | 0.00 | 0.00 | 0.00 | 74 | 1013.8 |
| 20260507043333 | 56 | 105 | 2.0 | 11.0 | 0.00 | 0.00 | 0.00 | 74 | 1013.8 |
| 20260507042347 | 56 | 262 | 1.0 | 6.0 | 0.00 | 0.00 | 0.00 | 75 | 1013.6 |
| 20260507041342 | 56 | 85 | 2.0 | 6.0 | 0.00 | 0.00 | 0.00 | 73 | 1013.5 |
| 20260507040338 | 56 | 204 | 2.0 | 10.0 | 0.00 | 0.00 | 0.00 | 73 | 1013.7 |
| 20260507035327 | 56 | 314 | 1.0 | 6.0 | 0.00 | 0.00 | 0.00 | 75 | 1013.8 |
| 20260507034343 | 56 | 346 | 2.0 | 9.0 | 0.00 | 0.00 | 0.00 | 75 | 1013.9 |
| 20260507033330 | 56 | 139 | 1.0 | 7.0 | 0.00 | 0.00 | 0.00 | 75 | 1013.7 |
| 20260507032403 | 56 | 30 | 2.0 | 11.0 | 0.00 | 0.00 | 0.00 | 74 | 1013.6 |
| 20260507031338 | 56 | 266 | 3.0 | 8.0 | 0.00 | 0.00 | 0.00 | 74 | 1013.8 |
| 20260507030354 | 56 | 70 | 2.0 | 12.0 | 0.00 | 0.00 | 0.00 | 74 | 1013.8 |
| 20260507025343 | 56 | 248 | 3.0 | 13.0 | 0.00 | 0.00 | 0.00 | 73 | 1013.8 |
| 20260507024340 | 56 | 347 | 2.0 | 9.0 | 0.00 | 0.00 | 0.00 | 73 | 1013.9 |
| 20260507023334 | 56 | 65 | 2.0 | 6.0 | 0.00 | 0.00 | 0.00 | 72 | 1013.9 |
| 20260507022341 | 56 | 16 | 2.0 | 6.0 | 0.00 | 0.00 | 0.00 | 72 | 1013.9 |
| 20260507021338 | 56 | 238 | 2.0 | 7.0 | 0.00 | 0.00 | 0.00 | 73 | 1013.8 |
| 20260507020326 | 56 | 322 | 1.0 | 4.0 | 0.00 | 0.00 | 0.00 | 73 | 1013.8 |
| 20260507015343 | 56 | 209 | 2.0 | 6.0 | 0.00 | 0.00 | 0.00 | 72 | 1013.7 |
| 20260507014359 | 57 | 233 | 2.0 | 8.0 | 0.00 | 0.00 | 0.00 | 71 | 1013.5 |
| 20260507013356 | 57 | 200 | 2.0 | 7.0 | 0.00 | 0.00 | 0.00 | 71 | 1013.4 |
| 20260507012342 | 57 | 235 | 2.0 | 13.0 | 0.00 | 0.00 | 0.00 | 71 | 1013.5 |
| 20260507011328 | 56 | 286 | 1.0 | 6.0 | 0.00 | 0.00 | 0.00 | 73 | 1013.5 |
| 20260507010343 | 56 | 73 | 2.0 | 9.0 | 0.00 | 0.39 | 0.00 | 72 | 1013.4 |
| 20260507005342 | 56 | 301 | 1.0 | 6.0 | 0.00 | 0.39 | 0.00 | 72 | 1013.6 |
| 20260507004339 | 56 | 96 | 2.0 | 5.0 | 0.00 | 0.39 | 0.00 | 73 | 1013.6 |
| 20260507003331 | 56 | 324 | 1.0 | 9.0 | 0.00 | 0.39 | 0.00 | 72 | 1013.8 |
| 20260507002337 | 56 | 136 | 2.0 | 11.0 | 0.00 | 0.39 | 0.00 | 72 | 1013.6 |
| 20260507001335 | 56 | 203 | 1.0 | 5.0 | 0.00 | 0.39 | 0.00 | 72 | 1013.7 |
| 20260507000331 | 56 | 143 | 0.0 | 5.0 | 0.00 | 0.59 | 0.00 | 72 | 1013.7 |
| 20260506235345 | 56 | 98 | 1.0 | 4.0 | 0.00 | 0.59 | 0.00 | 71 | 1013.7 |
| 20260506234343 | 56 | 133 | 2.0 | 6.0 | 0.00 | 0.59 | 0.00 | 72 | 1013.8 |
| 20260506233340 | 55 | 169 | 1.0 | 3.0 | 0.00 | 0.59 | 0.00 | 74 | 1013.7 |
| 20260506232339 | 55 | 138 | 0.0 | 3.0 | 0.00 | 0.59 | 0.00 | 77 | 1013.7 |
| 20260506231335 | 54 | 140 | 0.0 | 2.0 | 0.00 | 0.59 | 0.00 | 78 | 1013.9 |
| 20260506230334 | 55 | 295 | 0.0 | 0.0 | 0.00 | 0.91 | 0.00 | 81 | 1013.9 |
| 20260506225334 | 55 | 224 | 0.0 | 0.0 | 0.00 | 0.91 | 0.00 | 81 | 1013.7 |
| 20260506224336 | 55 | 221 | 0.0 | 0.0 | 0.00 | 0.91 | 0.00 | 79 | 1013.7 |
| 20260506223335 | 55 | 262 | 0.0 | 0.0 | 0.00 | 0.91 | 0.00 | 79 | 1013.8 |
| 20260506222341 | 55 | 243 | 0.0 | 0.0 | 0.00 | 0.91 | 0.00 | 77 | 1013.8 |
| 20260506221340 | 56 | 248 | 0.0 | 0.0 | 0.00 | 0.91 | 0.00 | 76 | 1013.7 |
| 20260506220338 | 56 | 235 | 0.0 | 0.0 | 0.00 | 0.98 | 0.18 | 74 | 1013.7 |
| 20260506215327 | 57 | 212 | 0.0 | 0.0 | 0.00 | 0.98 | 0.18 | 73 | 1013.7 |
| 20260506214339 | 57 | 220 | 0.0 | 4.0 | 0.00 | 0.98 | 0.18 | 71 | 1013.5 |
| 20260506213329 | 57 | 227 | 0.0 | 3.0 | 0.00 | 0.98 | 0.18 | 70 | 1013.5 |
| 20260506212334 | 57 | 203 | 0.0 | 2.0 | 0.00 | 0.98 | 0.18 | 72 | 1013.4 |
| 20260506211351 | 58 | 150 | 0.0 | 4.0 | 0.00 | 0.98 | 0.18 | 69 | 1013.4 |
| 20260506210347 | 58 | 126 | 2.0 | 4.0 | 0.00 | 1.02 | 0.18 | 66 | 1013.4 |
| 20260506205340 | 58 | 223 | 0.0 | 5.0 | 0.00 | 1.02 | 0.18 | 65 | 1013.6 |
| 20260506204334 | 59 | 117 | 1.0 | 5.0 | 0.00 | 1.02 | 0.18 | 62 | 1013.5 |
| 20260506203344 | 59 | 103 | 1.0 | 6.0 | 0.00 | 1.02 | 0.18 | 59 | 1013.3 |
| 20260506202354 | 58 | 333 | 2.0 | 7.0 | 0.00 | 1.02 | 0.18 | 58 | 1013.4 |
| 20260506201343 | 58 | 75 | 1.0 | 6.0 | 0.00 | 1.02 | 0.18 | 62 | 1013.3 |
| 20260506200336 | 58 | 122 | 2.0 | 7.0 | 0.00 | 1.18 | 0.18 | 63 | 1013.0 |
| 20260506195333 | 58 | 186 | 3.0 | 19.0 | 0.00 | 1.18 | 0.18 | 64 | 1013.1 |
| 20260506194403 | 58 | 198 | 2.0 | 6.0 | 0.00 | 1.18 | 0.18 | 67 | 1012.9 |
| 20260506193326 | 58 | 136 | 1.0 | 5.0 | 0.00 | 1.18 | 0.18 | 69 | 1012.7 |
| 20260506192342 | 58 | 175 | 1.0 | 7.0 | 0.00 | 1.18 | 0.18 | 71 | 1012.6 |
| 20260506191331 | 58 | 105 | 1.0 | 5.0 | 0.00 | 1.18 | 0.18 | 71 | 1012.5 |
| 20260506190343 | 58 | 334 | 2.0 | 5.0 | 0.00 | 1.34 | 0.18 | 71 | 1012.2 |
| 20260506185359 | 58 | 166 | 1.0 | 4.0 | 0.00 | 1.34 | 0.18 | 70 | 1012.3 |
| 20260506184352 | 57 | 142 | 0.0 | 3.0 | 0.00 | 1.34 | 0.18 | 71 | 1012.4 |
| 20260506183328 | 57 | 179 | 0.0 | 0.0 | 0.00 | 1.34 | 0.18 | 73 | 1012.3 |
| 20260506182342 | 58 | 132 | 0.0 | 2.0 | 0.00 | 1.34 | 0.18 | 72 | 1012.2 |
| 20260506181341 | 59 | 147 | 0.0 | 1.0 | 0.00 | 1.34 | 0.18 | 69 | 1012.1 |
| 20260506180330 | 59 | 170 | 0.0 | 2.0 | 0.00 | 1.89 | 0.18 | 70 | 1012.0 |
| 20260506175346 | 60 | 226 | 0.0 | 0.0 | 0.00 | 1.89 | 0.18 | 77 | 1012.0 |
| 20260506174345 | 61 | 297 | 0.0 | 0.0 | 0.00 | 1.89 | 0.18 | 74 | 1012.0 |
| 20260506173330 | 62 | 18 | 0.0 | 3.0 | 0.00 | 1.89 | 0.18 | 71 | 1012.0 |
| 20260506172406 | 62 | 137 | 0.0 | 3.0 | 0.00 | 1.89 | 0.18 | 68 | 1011.8 |
| 20260506171343 | 62 | 135 | 2.0 | 7.0 | 0.00 | 1.89 | 0.18 | 65 | 1011.7 |
| 20260506170330 | 62 | 226 | 2.0 | 11.0 | 0.00 | 1.89 | 0.18 | 65 | 1011.7 |
| 20260506165342 | 62 | 202 | 1.0 | 7.0 | 0.00 | 1.89 | 0.18 | 64 | 1011.8 |
| 20260506164330 | 62 | 113 | 1.0 | 5.0 | 0.00 | 1.89 | 0.18 | 64 | 1011.8 |
| 20260506163329 | 62 | 117 | 1.0 | 6.0 | 0.00 | 1.89 | 0.18 | 63 | 1011.7 |
| 20260506162358 | 62 | 352 | 1.0 | 6.0 | 0.00 | 1.89 | 0.18 | 64 | 1011.8 |
| 20260506161336 | 62 | 221 | 2.0 | 4.0 | 0.00 | 1.89 | 0.18 | 64 | 1011.9 |
| 20260506160332 | 63 | 204 | 1.0 | 4.0 | 0.00 | 1.89 | 0.18 | 67 | 1011.9 |
| 20260506155338 | 63 | 102 | 1.0 | 5.0 | 0.00 | 1.89 | 0.18 | 71 | 1011.9 |
| 20260506154336 | 64 | 201 | 1.0 | 6.0 | 0.00 | 1.89 | 0.18 | 70 | 1011.9 |
| 20260506153350 | 63 | 181 | 2.0 | 8.0 | 0.00 | 1.89 | 0.18 | 69 | 1012.0 |
| 20260506152341 | 63 | 317 | 1.0 | 7.0 | 0.00 | 1.89 | 0.18 | 72 | 1011.7 |
| 20260506151339 | 64 | 49 | 1.0 | 8.0 | 0.00 | 1.89 | 0.18 | 73 | 1011.9 |
| 20260506150335 | 64 | 131 | 1.0 | 5.0 | 0.00 | 2.13 | 0.18 | 74 | 1011.9 |
| 20260506144337 | 64 | 172 | 1.0 | 6.0 | 0.00 | 2.13 | 0.18 | 79 | 1011.8 |
| 20260506143333 | 64 | 108 | 1.0 | 10.0 | 0.00 | 2.13 | 0.18 | 80 | 1011.9 |
| 20260506142350 | 64 | 318 | 1.0 | 11.0 | 0.00 | 2.13 | 0.18 | 81 | 1011.8 |
| 20260506141402 | 64 | 113 | 1.0 | 4.0 | 0.00 | 2.13 | 0.18 | 82 | 1011.9 |
| 20260506140330 | 64 | 94 | 1.0 | 5.0 | 0.00 | 2.13 | 0.18 | 82 | 1011.8 |
| 20260506135345 | 63 | 186 | 1.0 | 9.0 | 0.00 | 2.13 | 0.18 | 83 | 1011.9 |
| 20260506134343 | 64 | 37 | 2.0 | 6.0 | 0.00 | 2.13 | 0.18 | 82 | 1012.0 |
| 20260506133330 | 65 | 161 | 1.0 | 5.0 | 0.00 | 2.13 | 0.18 | 80 | 1012.0 |
| 20260506132404 | 66 | 214 | 1.0 | 4.0 | 0.00 | 2.13 | 0.18 | 77 | 1012.1 |
| 20260506131331 | 66 | 96 | 0.0 | 9.0 | 0.00 | 2.13 | 0.18 | 79 | 1012.1 |
| 20260506130403 | 67 | 98 | 1.0 | 6.0 | 0.00 | 2.17 | 0.18 | 78 | 1012.0 |
| 20260506125342 | 67 | 111 | 0.0 | 0.0 | 0.00 | 2.17 | 0.18 | 80 | 1012.0 |
| 20260506124342 | 67 | 147 | 0.0 | 0.0 | 0.00 | 2.17 | 0.18 | 83 | 1012.1 |
| 20260506123349 | 67 | 46 | 0.0 | 0.0 | 0.00 | 2.17 | 0.18 | 81 | 1012.2 |
| 20260506122407 | 67 | 131 | 0.0 | 0.0 | 0.00 | 2.17 | 0.18 | 82 | 1012.1 |
| 20260506121336 | 66 | 113 | 0.0 | 0.0 | 0.00 | 2.17 | 0.18 | 84 | 1012.2 |
| 20260506120325 | 65 | 113 | 0.0 | 0.0 | 0.00 | 2.60 | 0.18 | 85 | 1012.1 |
| 20260506115337 | 65 | 317 | 0.0 | 0.0 | 0.00 | 2.60 | 0.18 | 84 | 1012.1 |
| 20260506114337 | 66 | 105 | 0.0 | 0.0 | 0.00 | 2.60 | 0.18 | 84 | 1012.0 |
| 20260506113329 | 66 | 331 | 0.0 | 0.0 | 0.00 | 2.60 | 0.18 | 86 | 1012.0 |
| 20260506112345 | 65 | 322 | 0.0 | 3.0 | 0.00 | 2.60 | 0.18 | 86 | 1011.8 |
| 20260506111403 | 65 | 154 | 0.0 | 0.0 | 0.00 | 2.60 | 0.18 | 85 | 1012.0 |
| 20260506110332 | 66 | 46 | 0.0 | 0.0 | 0.00 | 2.60 | 0.18 | 86 | 1012.0 |
| 20260506105404 | 66 | 98 | 0.0 | 0.0 | 0.00 | 2.60 | 0.18 | 89 | 1011.9 |
| 20260506104335 | 66 | 45 | 0.0 | 0.0 | 0.00 | 2.60 | 0.18 | 92 | 1011.9 |